Oakes, ND

12:17 AM CST on December 03, 2016 (GMT -0600)
Oakes

Weather History for K2D5 - December, 2011

Change the Weather History Date:

Monday, December 5, 2011

  Actual Average (KABR) Record (KABR)
Temperature  
Mean Temperature 9 °F 19 °F  
Max Temperature 15 °F 29 °F 57 °F (1939)
Min Temperature 3 °F 9 °F -25 °F (2005)
Degree Days  
Heating Degree Days 56 46  
Month to date heating degree days 226  
Since 1 July heating degree days 2189  
Cooling Degree Days 0 0  
Month to date cooling degree days 0  
Year to date cooling degree days 525  
Moisture  
Dew Point 4 °F    
Average Humidity 82    
Maximum Humidity 92    
Minimum Humidity 72    
Precipitation  
Precipitation 0.15 in 0.02 in 0.41 in (1936)
Month to date precipitation 0.09  
Year to date precipitation 21.29  
Snow  
Snow 0.00 in - - ()
Month to date snowfall  
Since 1 July snowfall  
Snow Depth -    
Sea Level Pressure  
Sea Level Pressure 30.53 in    
Wind  
Wind Speed 12 mph (NW)    
Max Wind Speed 21 mph    
Max Gust Speed 25 mph    
Visibility 9 miles    
Events Rain , Snow    
T = Trace of Precipitation, MM = Missing Value Source: NWS Daily Summary

Daily Weather History Graph

Daily Weather History Graph

Search for Another Location

Airport or City:

Trip Planner

Search our weather history database for the weather conditions in past years. The results will help you decide how hot, cold, wet, or windy it might be!

Date:

Astronomy

Dec. 05, 2011 Rise Set
Actual Time 7:58 AM CST 4:46 PM CST
Civil Twilight 7:24 AM CST 5:21 PM CST
Nautical Twilight 6:46 AM CST 5:58 PM CST
Astronomical Twilight 6:10 AM CST 6:35 PM CST
Moon 1:55 PM CST (12/5) 3:10 AM CST (12/5)
Length of Visible Light 9h 56m
Length of Day
8h 48m
Waxing Gibbous, 80% of the Moon is Illuminated
Dec 5
Waxing Gibbous
Dec 10
Full
Dec 17
Last Quarter
Dec 24
New
Jan 1
First Quarter

Hourly Weather History & Observations

Time (CST) Temp. Windchill Dew Point Humidity Pressure Visibility Wind Dir Wind Speed Gust Speed Precip Events Conditions
12:15 AM 14.0 °F -1.4 °F 10.4 °F 86% 30.46 in 8.0 mi North 15.0 mph - N/A Snow Light Snow
12:35 AM 15.8 °F -1.1 °F 10.4 °F 79% 30.46 in 4.0 mi NNE 19.6 mph - 0.01 in Snow Light Snow
12:55 AM 14.0 °F -3.9 °F 8.6 °F 79% 30.47 in 9.0 mi North 20.7 mph 24.2 mph 0.02 in Rain Light Freezing Rain
1:15 AM 14.0 °F -2.5 °F 8.6 °F 79% 30.46 in 10.0 mi North 17.3 mph 25.3 mph N/A Rain Light Freezing Rain
1:35 AM 14.0 °F -3.0 °F 8.6 °F 79% 30.46 in 10.0 mi NNE 18.4 mph 23.0 mph N/A Rain Light Freezing Rain
1:55 AM 14.0 °F 0.5 °F 8.6 °F 79% 30.46 in 10.0 mi NNE 11.5 mph - N/A Rain Light Freezing Rain
2:15 AM 14.0 °F 0.5 °F 8.6 °F 79% 30.47 in 10.0 mi North 11.5 mph - N/A Rain Light Freezing Rain
2:35 AM 14.0 °F 1.2 °F 8.6 °F 79% 30.49 in 5.0 mi North 10.4 mph - 0.01 in Snow Light Snow
2:55 AM 12.2 °F -1.8 °F 8.6 °F 85% 30.49 in 9.0 mi North 11.5 mph - 0.01 in Rain Light Freezing Rain
3:15 AM 10.4 °F -2.4 °F 8.6 °F 92% 30.50 in 7.0 mi North 9.2 mph - N/A Snow Light Snow
3:35 AM 12.2 °F -1.0 °F 10.4 °F 92% 30.50 in 5.0 mi North 10.4 mph - 0.01 in Snow Light Snow
3:55 AM 12.2 °F -0.2 °F 10.4 °F 92% 30.51 in 3.0 mi NNW 9.2 mph - 0.04 in Snow Light Snow
4:15 AM 10.4 °F -6.0 °F 8.6 °F 92% 30.51 in 3.0 mi NNW 15.0 mph 19.6 mph 0.02 in Snow Light Snow
4:35 AM 8.6 °F -7.7 °F 6.8 °F 92% 30.52 in 10.0 mi NNW 13.8 mph - 0.04 in Snow Light Snow
5:15 AM 8.6 °F -8.3 °F 5.0 °F 85% 30.53 in 10.0 mi NNW 15.0 mph - N/A   Unknown
5:35 AM 8.6 °F -8.3 °F 6.8 °F 92% 30.54 in 3.0 mi NNW 15.0 mph - 0.01 in Snow Light Snow
5:55 AM 6.8 °F -10.0 °F 5.0 °F 92% 30.54 in 6.0 mi NNW 13.8 mph - 0.04 in Snow Light Snow
6:35 AM 5.0 °F -12.3 °F 1.4 °F 85% 30.54 in 10.0 mi NNW 13.8 mph - N/A   Mostly Cloudy
6:55 AM 5.0 °F -10.0 °F 1.4 °F 85% 30.55 in 10.0 mi NNW 10.4 mph - N/A   Unknown
7:15 AM 5.0 °F -9.1 °F 1.4 °F 85% 30.55 in 10.0 mi NNW 9.2 mph - N/A   Unknown
7:35 AM 3.2 °F -11.3 °F -0.4 °F 85% 30.56 in 10.0 mi NNW 9.2 mph - N/A   Unknown
7:55 AM 3.2 °F -9.1 °F -0.4 °F 85% 30.56 in 10.0 mi NW 6.9 mph - N/A   Mostly Cloudy
8:15 AM 3.2 °F -10.3 °F -0.4 °F 85% 30.57 in 10.0 mi NW 8.1 mph - N/A   Overcast
8:35 AM 3.2 °F -11.3 °F -0.4 °F 85% 30.58 in 10.0 mi NNW 9.2 mph - N/A   Mostly Cloudy
8:55 AM 3.2 °F -12.2 °F -0.4 °F 85% 30.59 in 10.0 mi NW 10.4 mph - N/A   Unknown
9:15 AM 3.2 °F -12.2 °F -0.4 °F 85% 30.59 in 10.0 mi NW 10.4 mph - N/A   Unknown
9:35 AM 3.2 °F -11.3 °F -0.4 °F 85% 30.60 in 10.0 mi NNW 9.2 mph - N/A   Clear
9:55 AM 5.0 °F -10.0 °F -0.4 °F 78% 30.60 in 10.0 mi NNW 10.4 mph - N/A   Clear
10:15 AM 6.8 °F -9.3 °F -0.4 °F 72% 30.60 in 10.0 mi NNW 12.7 mph - N/A   Clear
10:35 AM 6.8 °F -10.0 °F 1.4 °F 79% 30.59 in 10.0 mi NNW 13.8 mph 19.6 mph N/A   Clear
10:55 AM 8.6 °F -6.3 °F 1.4 °F 73% 30.60 in 10.0 mi NNW 11.5 mph - N/A Snow Light Snow
11:15 AM 8.6 °F -7.0 °F 3.2 °F 79% 30.60 in 10.0 mi NNW 12.7 mph 17.3 mph N/A Snow Light Snow
11:35 AM 8.6 °F -7.0 °F 3.2 °F 79% 30.59 in 9.0 mi NNW 12.7 mph - N/A Snow Light Snow
11:55 AM 8.6 °F -7.0 °F 3.2 °F 79% 30.58 in 9.0 mi NNW 12.7 mph - N/A Rain Light Freezing Rain
12:15 PM 8.6 °F -1.3 °F 3.2 °F 79% 30.58 in 10.0 mi North 5.8 mph - N/A   Mostly Cloudy
12:35 PM 10.4 °F -1.5 °F 5.0 °F 79% 30.57 in 10.0 mi NW 8.1 mph - N/A   Overcast
12:55 PM 10.4 °F -1.5 °F 5.0 °F 79% 30.56 in 10.0 mi WNW 8.1 mph - N/A   Mostly Cloudy
1:15 PM 10.4 °F 0.8 °F 3.2 °F 73% 30.56 in 8.0 mi NW 5.8 mph - N/A Snow Light Snow
1:35 PM 10.4 °F -0.4 °F 5.0 °F 79% 30.55 in 10.0 mi NW 6.9 mph - N/A   Mostly Cloudy
1:55 PM 10.4 °F 0.8 °F 5.0 °F 79% 30.54 in 10.0 mi NW 5.8 mph - N/A Snow Light Snow
2:15 PM 12.2 °F -2.5 °F 5.0 °F 73% 30.53 in 10.0 mi West 12.7 mph - N/A   Mostly Cloudy
2:35 PM 10.4 °F -2.4 °F 5.0 °F 79% 30.52 in 10.0 mi West 9.2 mph - N/A   Mostly Cloudy
2:55 PM 10.4 °F -2.4 °F 5.0 °F 79% 30.52 in 10.0 mi West 9.2 mph - N/A   Unknown
3:15 PM 10.4 °F -0.4 °F 5.0 °F 79% 30.51 in 10.0 mi WNW 6.9 mph - N/A Snow Light Snow
3:35 PM 12.2 °F 0.7 °F 5.0 °F 73% 30.50 in 10.0 mi West 8.1 mph - N/A   Unknown
4:15 PM 10.4 °F 2.2 °F 5.0 °F 79% 30.51 in 10.0 mi West 4.6 mph - N/A   Scattered Clouds
4:35 PM 10.4 °F -2.4 °F 5.0 °F 79% 30.51 in 10.0 mi West 9.2 mph - N/A   Overcast
4:55 PM 10.4 °F -2.4 °F 5.0 °F 79% 30.51 in 10.0 mi West 9.2 mph - N/A   Overcast
5:15 PM 10.4 °F 4.0 °F 5.0 °F 79% 30.52 in 10.0 mi West 3.5 mph - N/A   Overcast
5:35 PM 8.6 °F - 5.0 °F 85% 30.52 in 10.0 mi Calm Calm - N/A   Unknown
5:55 PM 8.6 °F 0.1 °F 5.0 °F 85% 30.51 in 10.0 mi WNW 4.6 mph - N/A   Unknown
6:15 PM 8.6 °F - 5.0 °F 85% 30.50 in 10.0 mi Calm Calm - N/A   Unknown
6:35 PM 8.6 °F - 5.0 °F 85% 30.49 in 10.0 mi Calm Calm - N/A   Unknown
6:55 PM 6.8 °F - 3.2 °F 85% 30.49 in 10.0 mi Calm Calm - N/A   Unknown
7:15 PM 6.8 °F - 3.2 °F 85% 30.48 in 10.0 mi Calm Calm - N/A   Overcast
7:35 PM 8.6 °F 2.0 °F 5.0 °F 85% 30.48 in 10.0 mi South 3.5 mph - N/A   Overcast
7:55 PM 10.4 °F 4.0 °F 5.0 °F 79% 30.48 in 10.0 mi SSW 3.5 mph - N/A   Overcast
8:15 PM 8.6 °F 0.1 °F 3.2 °F 79% 30.47 in 10.0 mi SW 4.6 mph - N/A Snow Light Snow
8:35 PM 6.8 °F -3.5 °F 1.4 °F 79% 30.46 in 10.0 mi South 5.8 mph - N/A   Mostly Cloudy
8:55 PM 6.8 °F -3.5 °F 1.4 °F 79% 30.46 in 10.0 mi SSW 5.8 mph - N/A   Clear
9:15 PM 5.0 °F -8.1 °F 1.4 °F 85% 30.45 in 10.0 mi South 8.1 mph - N/A   Unknown
9:35 PM 3.2 °F -10.3 °F -0.4 °F 85% 30.45 in 10.0 mi South 8.1 mph - N/A   Unknown
9:55 PM 3.2 °F -10.3 °F -0.4 °F 85% 30.44 in 10.0 mi SSW 8.1 mph - N/A   Unknown
10:15 PM 1.4 °F -12.5 °F -0.4 °F 92% 30.44 in 10.0 mi SSW 8.1 mph - N/A   Clear
10:35 PM 1.4 °F -11.3 °F -0.4 °F 92% 30.43 in 10.0 mi SSW 6.9 mph - N/A   Clear
10:55 PM 1.4 °F -11.3 °F -0.4 °F 92% 30.43 in 10.0 mi SW 6.9 mph - N/A   Clear
11:15 PM 1.4 °F -11.3 °F -0.4 °F 92% 30.43 in 10.0 mi SSW 6.9 mph - N/A   Unknown
11:35 PM -0.4 °F -14.7 °F -2.2 °F 92% 30.43 in 10.0 mi SSW 8.1 mph - N/A   Unknown
11:55 PM -0.4 °F -15.7 °F -4.0 °F 85% 30.42 in 10.0 mi South 9.2 mph - N/A   Clear